7 * 24
多渠道服务支持
STARLINK-37465(NORAD编号68847)是美国SpaceX公司星链(Starlink)低轨互联网星座中的一颗卫星。星链项目旨在构建覆盖全球的天基高速互联网通信系统,通过大规模低轨卫星组网,为全球偏远地区、海洋等地面网络覆盖薄弱区域提供宽带接入服务。STARLINK-37465运行在近地轨道,依托星链星座的激光星间链路和微波通信技术,可支持稳定的数据传输,助力星链实现更广范围的网络覆盖,目前该卫星随星链整体部署推进,服务全球数百万用户的卫星互联网接入需求。
美国
(US)
| 数据来源 | 国际轨道数据 |
| 星历时间: | 2026-05-24T08:47:49+0800 1天前 查看轨道信息 |
| 半长轴: | 6797.175km |
| 偏心率: | 0.0000654 |
| 轨道倾角: | 97.285° |
| 近地点辐角 | 68.503° |
| 升交点赤经 | 158.618° |
| 平近点角 | 291.629° |
| 近地点: | 418.593km |
| 远地点: | 419.483km |
| 周期: | 92.951分钟 |
| 每日圈数: | 15.492093 |